Time,TemperatureF,DewpointF,PressureIn,WindDirection,WindDirectionDegrees,WindSpeedMPH,WindSpeedGustMPH,Humidity,HourlyPrecipIn,Conditions,Clouds,dailyrainin,SoftwareType,DateUTC
2013-01-13 00:00:00,45.0,42.5,30.13,WSW,241,2.0,3.0,91,0.00,,---,0.01,VWS V14.01,2013-01-13 05:00:00,
2013-01-13 00:01:00,45.0,42.5,30.13,WSW,241,3.0,3.0,91,0.00,,---,0.01,VWS V14.01,2013-01-13 05:01:00,
2013-01-13 00:03:00,45.0,42.5,30.13,WSW,241,0.0,3.0,91,0.00,,---,0.00,VWS V14.01,2013-01-13 05:03:00,
2013-01-13 00:05:00,44.9,42.4,30.13,WSW,241,0.0,3.0,91,0.00,,---,0.00,VWS V14.01,2013-01-13 05:05:00,
2013-01-13 00:10:00,44.9,42.4,30.13,WSW,241,0.0,3.0,91,0.00,,---,0.00,VWS V14.01,2013-01-13 05:10:00,
2013-01-13 00:15:00,44.9,42.4,30.14,WSW,242,3.0,3.0,91,0.00,,---,0.00,VWS V14.01,2013-01-13 05:15:00,
2013-01-13 00:20:00,44.9,42.4,30.14,WSW,242,0.0,3.0,91,0.00,,---,0.00,VWS V14.01,2013-01-13 05:20:00,
2013-01-13 00:25:00,44.8,42.3,30.13,WSW,241,1.0,3.0,91,0.00,,---,0.00,VWS V14.01,2013-01-13 05:25:00,
2013-01-13 00:30:00,44.8,42.3,30.13,WSW,241,1.0,3.0,91,0.00,,---,0.00,VWS V14.01,2013-01-13 05:30:00,
2013-01-13 00:35:00,44.7,42.2,30.12,West,264,0.0,4.0,91,0.00,,---,0.00,VWS V14.01,2013-01-13 05:35:00,
2013-01-13 00:40:00,44.6,42.4,30.12,West,264,2.0,4.0,92,0.00,,---,0.00,VWS V14.01,2013-01-13 05:40:00,
2013-01-13 00:45:00,44.5,42.3,30.13,West,264,0.0,4.0,92,0.00,,---,0.00,VWS V14.01,2013-01-13 05:45:00,
2013-01-13 00:50:00,44.5,42.3,30.13,West,264,0.0,0.0,92,0.00,,---,0.00,VWS V14.01,2013-01-13 05:50:00,
2013-01-13 00:55:00,44.4,42.2,30.14,West,264,0.0,5.0,92,0.00,,---,0.00,VWS V14.01,2013-01-13 05:55:00,
2013-01-13 01:00:00,44.3,42.1,30.14,West,265,0.0,5.0,92,0.00,,---,0.00,VWS V14.01,2013-01-13 06:00:00,
2013-01-13 01:05:00,44.2,42.0,30.13,West,265,0.0,2.0,92,0.00,,---,0.00,VWS V14.01,2013-01-13 06:05:00,
2013-01-13 01:10:00,44.1,41.9,30.13,West,265,0.0,3.0,92,0.00,,---,0.00,VWS V14.01,2013-01-13 06:10:00,
2013-01-13 01:15:00,44.0,41.8,30.13,West,265,0.0,3.0,92,0.00,,---,0.00,VWS V14.01,2013-01-13 06:15:00,
2013-01-13 01:20:00,44.0,41.8,30.13,West,265,0.0,0.0,92,0.00,,---,0.00,VWS V14.01,2013-01-13 06:20:00,
2013-01-13 01:25:00,44.0,41.8,30.13,West,265,0.0,0.0,92,0.00,,---,0.00,VWS V14.01,2013-01-13 06:25:00,
2013-01-13 01:30:00,43.9,41.7,30.12,West,263,0.0,3.0,92,0.00,,---,0.00,VWS V14.01,2013-01-13 06:30:00,
2013-01-13 01:36:00,43.9,41.7,30.12,South,180,0.0,3.0,92,0.00,,---,0.00,VWS V14.01,2013-01-13 06:36:00,
2013-01-13 01:41:00,43.9,42.0,30.12,South,180,0.0,3.0,93,0.00,,---,0.00,VWS V14.01,2013-01-13 06:41:00,
2013-01-13 01:45:00,43.9,42.0,30.12,South,180,0.0,3.0,93,0.00,,---,0.00,VWS V14.01,2013-01-13 06:45:00,
2013-01-13 01:46:00,43.9,42.0,30.12,South,180,0.0,3.0,93,0.00,,---,0.00,VWS V14.01,2013-01-13 06:46:00,
2013-01-13 01:51:00,43.8,41.9,30.12,South,180,0.0,0.0,93,0.00,,---,0.00,VWS V14.01,2013-01-13 06:51:00,
2013-01-13 01:56:00,43.8,41.9,30.12,South,180,0.0,0.0,93,0.00,,---,0.00,VWS V14.01,2013-01-13 06:56:00,
2013-01-13 02:00:00,43.8,41.9,30.12,South,180,0.0,0.0,93,0.00,,---,0.00,VWS V14.01,2013-01-13 07:00:00,
2013-01-13 02:01:00,43.8,41.9,30.12,South,180,0.0,0.0,93,0.00,,---,0.00,VWS V14.01,2013-01-13 07:01:00,
2013-01-13 02:06:00,43.8,41.9,30.12,South,180,0.0,1.0,93,0.00,,---,0.00,VWS V14.01,2013-01-13 07:06:00,
2013-01-13 02:11:00,43.8,41.9,30.11,South,180,0.0,2.0,93,0.00,,---,0.00,VWS V14.01,2013-01-13 07:11:00,
2013-01-13 02:15:00,43.8,41.9,30.11,South,180,0.0,2.0,93,0.00,,---,0.00,VWS V14.01,2013-01-13 07:15:00,
2013-01-13 02:16:00,43.8,41.9,30.11,South,180,0.0,0.0,93,0.00,,---,0.00,VWS V14.01,2013-01-13 07:16:00,
2013-01-13 02:21:00,43.9,42.0,30.12,South,180,0.0,0.0,93,0.00,,---,0.00,VWS V14.01,2013-01-13 07:21:00,
2013-01-13 02:26:00,43.9,42.0,30.12,South,180,0.0,0.0,93,0.00,,---,0.00,VWS V14.01,2013-01-13 07:26:00,
2013-01-13 02:30:00,43.9,42.0,30.11,South,180,0.0,0.0,93,0.00,,---,0.00,VWS V14.01,2013-01-13 07:30:00,
2013-01-13 02:31:00,44.0,42.1,30.12,South,180,0.0,0.0,93,0.00,,---,0.00,VWS V14.01,2013-01-13 07:31:00,
2013-01-13 02:36:00,44.0,42.1,30.13,South,180,0.0,0.0,93,0.00,,---,0.00,VWS V14.01,2013-01-13 07:36:00,
2013-01-13 02:41:00,43.9,42.0,30.13,South,180,0.0,0.0,93,0.00,,---,0.00,VWS V14.01,2013-01-13 07:41:00,
2013-01-13 02:45:00,44.0,42.1,30.12,South,173,0.0,4.0,93,0.00,,---,0.00,VWS V14.01,2013-01-13 07:45:00,
2013-01-13 02:46:00,44.0,42.1,30.12,SSE,162,3.0,3.0,93,0.00,,---,0.00,VWS V14.01,2013-01-13 07:46:00,
2013-01-13 02:51:00,44.1,42.2,30.12,SSE,161,3.0,4.0,93,0.00,,---,0.00,VWS V14.01,2013-01-13 07:51:00,
2013-01-13 02:56:00,44.0,42.4,30.12,South,169,5.0,5.0,94,0.00,,---,0.00,VWS V14.01,2013-01-13 07:56:00,
2013-01-13 03:00:00,44.1,42.5,30.11,SSE,148,3.0,5.0,94,0.00,,---,0.00,VWS V14.01,2013-01-13 08:00:00,
2013-01-13 03:01:00,44.0,42.4,30.12,SSE,148,3.0,3.0,94,0.00,,---,0.00,VWS V14.01,2013-01-13 08:01:00,
2013-01-13 03:06:00,44.1,42.5,30.12,SSE,153,3.0,4.0,94,0.00,,---,0.00,VWS V14.01,2013-01-13 08:06:00,
2013-01-13 03:11:00,44.0,42.4,30.12,SSE,153,0.0,4.0,94,0.00,,---,0.00,VWS V14.01,2013-01-13 08:11:00,
2013-01-13 03:15:00,44.0,42.4,30.12,SSE,161,2.0,4.0,94,0.00,,---,0.00,VWS V14.01,2013-01-13 08:15:00,
2013-01-13 03:16:00,44.0,42.4,30.13,SSW,203,3.0,3.0,94,0.00,,---,0.00,VWS V14.01,2013-01-13 08:16:00,
2013-01-13 03:21:00,43.9,42.3,30.12,SSW,209,0.0,3.0,94,0.00,,---,0.00,VWS V14.01,2013-01-13 08:21:00,
2013-01-13 03:26:00,43.9,42.3,30.12,SSW,209,0.0,3.0,94,0.00,,---,0.00,VWS V14.01,2013-01-13 08:26:00,
2013-01-13 03:30:00,43.9,42.3,30.12,SSW,209,0.0,3.0,94,0.00,,---,0.00,VWS V14.01,2013-01-13 08:30:00,
2013-01-13 03:32:00,43.9,42.3,30.12,SSW,209,0.0,0.0,94,0.00,,---,0.00,VWS V14.01,2013-01-13 08:32:00,
2013-01-13 03:37:00,43.9,42.3,30.13,SSW,209,0.0,1.0,94,0.00,,---,0.00,VWS V14.01,2013-01-13 08:37:00,
2013-01-13 03:42:00,43.9,42.3,30.12,SSW,209,0.0,1.0,94,0.00,,---,0.00,VWS V14.01,2013-01-13 08:42:00,
2013-01-13 03:45:00,43.9,42.3,30.13,SW,214,2.0,3.0,94,0.00,,---,0.00,VWS V14.01,2013-01-13 08:45:00,
2013-01-13 03:47:00,43.9,42.3,30.13,SW,214,1.0,2.0,94,0.00,,---,0.00,VWS V14.01,2013-01-13 08:47:00,
2013-01-13 03:52:00,43.9,42.3,30.12,North,355,0.0,4.0,94,0.00,,---,0.00,VWS V14.01,2013-01-13 08:52:00,
2013-01-13 03:57:00,43.9,42.3,30.12,NNW,336,1.0,4.0,94,0.00,,---,0.00,VWS V14.01,2013-01-13 08:57:00,
2013-01-13 04:00:00,43.9,42.3,30.12,NNW,336,0.0,4.0,94,0.00,,---,0.00,VWS V14.01,2013-01-13 09:00:00,
2013-01-13 04:02:00,43.9,42.3,30.11,NNW,336,0.0,0.0,94,0.00,,---,0.00,VWS V14.01,2013-01-13 09:02:00,
2013-01-13 04:07:00,43.9,42.3,30.11,NNW,336,0.0,0.0,94,0.00,,---,0.00,VWS V14.01,2013-01-13 09:07:00,
2013-01-13 04:12:00,43.8,42.2,30.11,NNW,336,0.0,1.0,94,0.00,,---,0.00,VWS V14.01,2013-01-13 09:12:00,
2013-01-13 04:15:00,43.8,42.2,30.11,NNW,336,0.0,3.0,94,0.00,,---,0.00,VWS V14.01,2013-01-13 09:15:00,
2013-01-13 04:17:00,43.7,42.1,30.11,NNW,336,0.0,0.0,94,0.00,,---,0.00,VWS V14.01,2013-01-13 09:17:00,
2013-01-13 04:22:00,43.6,42.0,30.11,NNW,336,0.0,0.0,94,0.00,,---,0.00,VWS V14.01,2013-01-13 09:22:00,
2013-01-13 04:27:00,43.6,42.0,30.10,NNW,336,0.0,0.0,94,0.00,,---,0.00,VWS V14.01,2013-01-13 09:27:00,
2013-01-13 04:30:00,43.6,42.0,30.10,NNW,336,0.0,0.0,94,0.00,,---,0.00,VWS V14.01,2013-01-13 09:30:00,
2013-01-13 04:32:00,43.6,42.0,30.10,NNW,336,0.0,0.0,94,0.00,,---,0.00,VWS V14.01,2013-01-13 09:32:00,
2013-01-13 04:37:00,43.7,42.1,30.10,NNW,336,0.0,0.0,94,0.00,,---,0.00,VWS V14.01,2013-01-13 09:37:00,
2013-01-13 04:42:00,43.6,42.0,30.11,NNW,336,0.0,1.0,94,0.00,,---,0.00,VWS V14.01,2013-01-13 09:42:00,
2013-01-13 04:45:00,43.6,42.0,30.11,NNW,336,0.0,1.0,94,0.00,,---,0.00,VWS V14.01,2013-01-13 09:45:00,
2013-01-13 04:47:00,43.6,42.0,30.11,NNW,336,0.0,0.0,94,0.00,,---,0.00,VWS V14.01,2013-01-13 09:47:00,
2013-01-13 04:52:00,43.6,42.0,30.11,NNW,336,0.0,1.0,94,0.00,,---,0.00,VWS V14.01,2013-01-13 09:52:00,
2013-01-13 04:57:00,43.7,42.1,30.11,NNW,336,0.0,1.0,94,0.00,,---,0.00,VWS V14.01,2013-01-13 09:57:00,
2013-01-13 05:00:00,43.7,42.1,30.10,NNW,336,0.0,1.0,94,0.00,,---,0.00,VWS V14.01,2013-01-13 10:00:00,
2013-01-13 05:02:00,43.7,42.1,30.10,NNW,336,0.0,0.0,94,0.00,,---,0.00,VWS V14.01,2013-01-13 10:02:00,
2013-01-13 05:07:00,43.8,42.2,30.09,NNW,336,0.0,3.0,94,0.00,,---,0.00,VWS V14.01,2013-01-13 10:07:00,
2013-01-13 05:12:00,43.9,42.3,30.10,NNW,336,0.0,3.0,94,0.00,,---,0.00,VWS V14.01,2013-01-13 10:12:00,
2013-01-13 05:15:00,43.9,42.3,30.10,NNW,336,0.0,3.0,94,0.00,,---,0.00,VWS V14.01,2013-01-13 10:15:00,
2013-01-13 05:17:00,43.9,42.3,30.09,NNW,336,2.0,4.0,94,0.00,,---,0.00,VWS V14.01,2013-01-13 10:17:00,
2013-01-13 05:22:00,43.8,42.2,30.10,NNW,336,0.0,4.0,94,0.00,,---,0.00,VWS V14.01,2013-01-13 10:22:00,
2013-01-13 05:27:00,43.8,42.2,30.09,NNW,336,0.0,4.0,94,0.00,,---,0.00,VWS V14.01,2013-01-13 10:27:00,
2013-01-13 05:30:00,43.7,42.1,30.09,NNW,336,0.0,4.0,94,0.00,,---,0.00,VWS V14.01,2013-01-13 10:30:00,
2013-01-13 05:33:00,43.7,42.1,30.09,NNW,336,0.0,0.0,94,0.00,,---,0.00,VWS V14.01,2013-01-13 10:33:00,
2013-01-13 05:38:00,43.6,42.0,30.09,NNW,336,2.0,4.0,94,0.00,,---,0.00,VWS V14.01,2013-01-13 10:38:00,
2013-01-13 05:43:00,43.6,42.3,30.10,NNW,336,0.0,4.0,95,0.00,,---,0.00,VWS V14.01,2013-01-13 10:43:00,
2013-01-13 05:45:00,43.6,42.0,30.09,NNW,336,0.0,4.0,94,0.00,,---,0.00,VWS V14.01,2013-01-13 10:45:00,
2013-01-13 05:48:00,43.6,42.0,30.09,NNW,336,0.0,0.0,94,0.00,,---,0.00,VWS V14.01,2013-01-13 10:48:00,
2013-01-13 05:53:00,43.6,42.0,30.10,NNW,336,0.0,0.0,94,0.00,,---,0.00,VWS V14.01,2013-01-13 10:53:00,
2013-01-13 05:58:00,43.6,42.0,30.09,NNW,336,0.0,2.0,94,0.00,,---,0.00,VWS V14.01,2013-01-13 10:58:00,
2013-01-13 06:00:00,43.6,42.0,30.10,NNW,336,0.0,2.0,94,0.00,,---,0.00,VWS V14.01,2013-01-13 11:00:00,
2013-01-13 06:03:00,43.6,42.3,30.10,NNW,336,0.0,0.0,95,0.00,,---,0.00,VWS V14.01,2013-01-13 11:03:00,
2013-01-13 06:08:00,43.7,42.4,30.10,NNW,336,0.0,1.0,95,0.00,,---,0.00,VWS V14.01,2013-01-13 11:08:00,
2013-01-13 06:13:00,43.5,41.9,30.10,NNW,336,3.0,4.0,94,0.00,,---,0.00,VWS V14.01,2013-01-13 11:13:00,
2013-01-13 06:15:00,43.4,41.8,30.10,NNW,337,3.0,4.0,94,0.00,,---,0.00,VWS V14.01,2013-01-13 11:15:00,
2013-01-13 06:18:00,43.3,42.0,30.10,SSE,148,3.0,4.0,95,0.00,,---,0.00,VWS V14.01,2013-01-13 11:18:00,
2013-01-13 06:23:00,43.3,42.0,30.10,SSE,155,2.0,5.0,95,0.00,,---,0.00,VWS V14.01,2013-01-13 11:23:00,
2013-01-13 06:28:00,43.2,41.9,30.10,SSE,150,4.0,5.0,95,0.00,,---,0.00,VWS V14.01,2013-01-13 11:28:00,
2013-01-13 06:30:00,43.1,41.8,30.10,SSE,159,2.0,5.0,95,0.00,,---,0.00,VWS V14.01,2013-01-13 11:30:00,
2013-01-13 06:33:00,43.1,41.8,30.10,SSE,159,2.0,5.0,95,0.00,,---,0.00,VWS V14.01,2013-01-13 11:33:00,
2013-01-13 06:38:00,43.1,41.5,30.10,SSE,159,0.0,5.0,94,0.00,,---,0.00,VWS V14.01,2013-01-13 11:38:00,
2013-01-13 06:43:00,43.1,41.8,30.10,SSE,159,1.0,5.0,95,0.00,,---,0.00,VWS V14.01,2013-01-13 11:43:00,
2013-01-13 06:45:00,43.1,41.8,30.10,SSE,159,0.0,5.0,95,0.00,,---,0.00,VWS V14.01,2013-01-13 11:45:00,
2013-01-13 06:48:00,43.1,41.8,30.10,SSE,159,2.0,2.0,95,0.00,,---,0.00,VWS V14.01,2013-01-13 11:48:00,
2013-01-13 06:53:00,43.1,41.8,30.10,SSE,159,0.0,4.0,95,0.00,,---,0.00,VWS V14.01,2013-01-13 11:53:00,
2013-01-13 06:58:00,43.1,41.8,30.09,SSE,159,1.0,4.0,95,0.00,,---,0.00,VWS V14.01,2013-01-13 11:58:00,
2013-01-13 07:00:00,43.2,41.9,30.09,SSE,159,2.0,4.0,95,0.00,,---,0.00,VWS V14.01,2013-01-13 12:00:00,
2013-01-13 07:03:00,43.2,41.9,30.10,SSE,159,2.0,4.0,95,0.00,,---,0.00,VWS V14.01,2013-01-13 12:03:00,
2013-01-13 07:08:00,43.2,41.9,30.10,SSE,159,2.0,4.0,95,0.00,,---,0.00,VWS V14.01,2013-01-13 12:08:00,
2013-01-13 07:13:00,43.2,41.9,30.10,SSE,159,3.0,4.0,95,0.00,,---,0.00,VWS V14.01,2013-01-13 12:13:00,
2013-01-13 07:15:00,43.2,41.9,30.10,SSE,159,1.0,4.0,95,0.00,,---,0.00,VWS V14.01,2013-01-13 12:15:00,
2013-01-13 07:18:00,43.2,41.9,30.10,SE,144,3.0,6.0,95,0.00,,---,0.00,VWS V14.01,2013-01-13 12:18:00,
2013-01-13 07:23:00,43.1,41.8,30.10,SSE,153,4.0,6.0,95,0.00,,---,0.00,VWS V14.01,2013-01-13 12:23:00,
2013-01-13 07:28:00,43.1,41.8,30.10,SSE,153,5.0,6.0,95,0.00,,---,0.00,VWS V14.01,2013-01-13 12:28:00,
2013-01-13 07:30:00,43.1,41.8,30.10,SSE,152,1.0,6.0,95,0.00,,---,0.00,VWS V14.01,2013-01-13 12:30:00,
2013-01-13 07:34:00,43.1,41.8,30.10,SSE,152,2.0,4.0,95,0.00,,---,0.00,VWS V14.01,2013-01-13 12:34:00,
2013-01-13 07:39:00,43.2,41.9,30.10,SSE,150,0.0,4.0,95,0.00,,---,0.00,VWS V14.01,2013-01-13 12:39:00,
2013-01-13 07:44:00,43.2,41.9,30.11,SSE,150,0.0,4.0,95,0.00,,---,0.00,VWS V14.01,2013-01-13 12:44:00,
2013-01-13 07:45:00,43.2,41.9,30.11,SSE,150,0.0,4.0,95,0.00,,---,0.00,VWS V14.01,2013-01-13 12:45:00,
2013-01-13 07:49:00,43.1,41.8,30.11,SSE,150,0.0,0.0,95,0.00,,---,0.00,VWS V14.01,2013-01-13 12:49:00,
2013-01-13 07:54:00,43.1,41.8,30.12,SSE,150,0.0,0.0,95,0.00,,---,0.00,VWS V14.01,2013-01-13 12:54:00,
2013-01-13 07:59:00,43.1,41.8,30.12,SSE,150,0.0,0.0,95,0.00,,---,0.00,VWS V14.01,2013-01-13 12:59:00,
2013-01-13 08:00:00,43.1,41.8,30.12,SSE,150,1.0,2.0,95,0.00,,---,0.00,VWS V14.01,2013-01-13 13:00:00,
2013-01-13 08:04:00,43.1,41.8,30.12,SSE,150,2.0,4.0,95,0.00,,---,0.00,VWS V14.01,2013-01-13 13:04:00,
2013-01-13 08:09:00,43.1,41.8,30.11,SSE,150,2.0,4.0,95,0.00,,---,0.00,VWS V14.01,2013-01-13 13:09:00,
2013-01-13 08:14:00,43.1,41.8,30.11,SSE,150,3.0,4.0,95,0.00,,---,0.00,VWS V14.01,2013-01-13 13:14:00,
2013-01-13 08:15:00,43.1,41.8,30.11,SSE,150,2.0,4.0,95,0.00,,---,0.00,VWS V14.01,2013-01-13 13:15:00,
2013-01-13 08:19:00,43.1,41.8,30.11,SSE,150,3.0,4.0,95,0.00,,---,0.00,VWS V14.01,2013-01-13 13:19:00,
2013-01-13 08:24:00,43.0,41.7,30.12,SSE,155,3.0,4.0,95,0.00,,---,0.00,VWS V14.01,2013-01-13 13:24:00,
2013-01-13 08:29:00,43.1,41.8,30.12,SSE,153,0.0,4.0,95,0.00,,---,0.00,VWS V14.01,2013-01-13 13:29:00,
2013-01-13 08:30:00,43.1,41.8,30.12,SSE,153,0.0,4.0,95,0.00,,---,0.00,VWS V14.01,2013-01-13 13:30:00,
2013-01-13 08:34:00,43.2,41.9,30.12,SSE,147,3.0,4.0,95,0.00,,---,0.00,VWS V14.01,2013-01-13 13:34:00,
2013-01-13 08:39:00,43.0,41.7,30.12,SE,129,2.0,4.0,95,0.00,,---,0.00,VWS V14.01,2013-01-13 13:39:00,
2013-01-13 08:44:00,43.0,41.7,30.12,SE,129,3.0,4.0,95,0.00,,---,0.00,VWS V14.01,2013-01-13 13:44:00,
2013-01-13 08:45:00,43.0,41.7,30.12,SE,129,3.0,4.0,95,0.00,,---,0.00,VWS V14.01,2013-01-13 13:45:00,
2013-01-13 08:50:00,42.9,41.6,30.12,SE,129,0.0,4.0,95,0.00,,---,0.00,VWS V14.01,2013-01-13 13:50:00,
2013-01-13 08:55:00,43.1,41.8,30.12,SE,129,2.0,4.0,95,0.00,,---,0.00,VWS V14.01,2013-01-13 13:55:00,
2013-01-13 09:00:00,43.1,41.8,30.13,SE,130,1.0,4.0,95,0.00,,---,0.00,VWS V14.01,2013-01-13 14:00:00,
2013-01-13 09:05:00,43.1,41.8,30.13,SE,130,2.0,3.0,95,0.00,,---,0.00,VWS V14.01,2013-01-13 14:05:00,
2013-01-13 09:10:00,43.2,41.9,30.13,SE,130,3.0,4.0,95,0.00,,---,0.00,VWS V14.01,2013-01-13 14:10:00,
2013-01-13 09:15:00,43.2,41.9,30.13,SE,130,0.0,4.0,95,0.00,,---,0.00,VWS V14.01,2013-01-13 14:15:00,
2013-01-13 09:20:00,43.2,41.9,30.13,SE,130,5.0,5.0,95,0.00,,---,0.00,VWS V14.01,2013-01-13 14:20:00,
2013-01-13 09:25:00,43.3,42.0,30.13,SE,130,0.0,5.0,95,0.00,,---,0.00,VWS V14.01,2013-01-13 14:25:00,
2013-01-13 09:30:00,43.3,42.0,30.12,SE,133,2.0,7.0,95,0.00,,---,0.00,VWS V14.01,2013-01-13 14:30:00,
2013-01-13 09:35:00,43.3,42.0,30.13,ESE,117,0.0,5.0,95,0.00,,---,0.00,VWS V14.01,2013-01-13 14:35:00,
2013-01-13 09:40:00,43.4,42.1,30.13,ESE,117,0.0,5.0,95,0.00,,---,0.00,VWS V14.01,2013-01-13 14:40:00,
2013-01-13 09:45:00,43.4,42.1,30.12,ESE,121,2.0,5.0,95,0.00,,---,0.00,VWS V14.01,2013-01-13 14:45:00,
2013-01-13 09:50:00,43.5,42.2,30.13,SE,128,4.0,4.0,95,0.00,,---,0.00,VWS V14.01,2013-01-13 14:50:00,
2013-01-13 09:55:00,43.4,42.1,30.13,SE,129,4.0,5.0,95,0.00,,---,0.00,VWS V14.01,2013-01-13 14:55:00,
2013-01-13 10:00:00,43.3,42.0,30.13,SE,129,0.0,5.0,95,0.00,,---,0.00,VWS V14.01,2013-01-13 15:00:00,
2013-01-13 10:05:00,43.6,42.3,30.13,SE,129,0.0,1.0,95,0.00,,---,0.00,VWS V14.01,2013-01-13 15:05:00,
2013-01-13 10:10:00,43.6,42.3,30.14,SE,129,4.0,4.0,95,0.00,,---,0.00,VWS V14.01,2013-01-13 15:10:00,
2013-01-13 10:15:00,43.7,42.4,30.14,SE,129,0.0,4.0,95,0.00,,---,0.00,VWS V14.01,2013-01-13 15:15:00,
2013-01-13 10:21:00,43.6,42.3,30.14,SE,129,0.0,4.0,95,0.00,,---,0.00,VWS V14.01,2013-01-13 15:21:00,
2013-01-13 10:26:00,43.5,42.2,30.15,SE,129,0.0,4.0,95,0.00,,---,0.00,VWS V14.01,2013-01-13 15:26:00,
2013-01-13 10:30:00,43.6,42.3,30.14,SE,129,0.0,4.0,95,0.00,,---,0.00,VWS V14.01,2013-01-13 15:30:00,
2013-01-13 10:31:00,43.6,42.3,30.14,SE,129,0.0,4.0,95,0.00,,---,0.00,VWS V14.01,2013-01-13 15:31:00,
2013-01-13 10:36:00,43.5,42.2,30.14,SE,129,0.0,1.0,95,0.00,,---,0.00,VWS V14.01,2013-01-13 15:36:00,
2013-01-13 10:41:00,43.5,42.2,30.13,SE,129,3.0,3.0,95,0.00,,---,0.00,VWS V14.01,2013-01-13 15:41:00,
2013-01-13 10:45:00,43.7,42.4,30.14,SE,129,2.0,4.0,95,0.00,,---,0.00,VWS V14.01,2013-01-13 15:45:00,
2013-01-13 10:46:00,43.7,42.4,30.13,SE,129,3.0,3.0,95,0.00,,---,0.00,VWS V14.01,2013-01-13 15:46:00,
2013-01-13 10:51:00,43.7,42.4,30.13,SE,129,3.0,5.0,95,0.00,,---,0.00,VWS V14.01,2013-01-13 15:51:00,
2013-01-13 10:56:00,43.7,42.4,30.13,SE,129,0.0,5.0,95,0.00,,---,0.00,VWS V14.01,2013-01-13 15:56:00,
2013-01-13 11:00:00,43.7,42.4,30.13,SE,129,0.0,5.0,95,0.00,,---,0.00,VWS V14.01,2013-01-13 16:00:00,
2013-01-13 11:01:00,43.8,42.5,30.13,SE,129,0.0,0.0,95,0.00,,---,0.00,VWS V14.01,2013-01-13 16:01:00,
2013-01-13 11:06:00,43.9,42.6,30.12,SE,129,3.0,4.0,95,0.00,,---,0.00,VWS V14.01,2013-01-13 16:06:00,
2013-01-13 11:11:00,44.0,42.7,30.12,SE,129,0.0,6.0,95,0.00,,---,0.00,VWS V14.01,2013-01-13 16:11:00,
2013-01-13 11:15:00,44.1,42.8,30.12,SE,129,3.0,6.0,95,0.00,,---,0.00,VWS V14.01,2013-01-13 16:15:00,
2013-01-13 11:16:00,44.1,42.8,30.12,SE,129,2.0,3.0,95,0.00,,---,0.00,VWS V14.01,2013-01-13 16:16:00,
2013-01-13 11:21:00,44.1,42.8,30.11,SE,129,0.0,3.0,95,0.00,,---,0.00,VWS V14.01,2013-01-13 16:21:00,
2013-01-13 11:26:00,44.3,43.0,30.12,SE,129,0.0,3.0,95,0.00,,---,0.00,VWS V14.01,2013-01-13 16:26:00,
2013-01-13 11:30:00,44.2,42.9,30.12,SE,129,0.0,3.0,95,0.00,,---,0.00,VWS V14.01,2013-01-13 16:30:00,
2013-01-13 11:32:00,44.2,42.9,30.12,SE,129,0.0,0.0,95,0.00,,---,0.00,VWS V14.01,2013-01-13 16:32:00,
2013-01-13 11:37:00,44.3,43.0,30.12,SE,129,0.0,3.0,95,0.00,,---,0.00,VWS V14.01,2013-01-13 16:37:00,
2013-01-13 11:42:00,44.3,43.0,30.12,SE,129,0.0,3.0,95,0.00,,---,0.00,VWS V14.01,2013-01-13 16:42:00,
2013-01-13 11:45:00,44.4,43.1,30.11,SE,129,0.0,3.0,95,0.00,,---,0.00,VWS V14.01,2013-01-13 16:45:00,
2013-01-13 11:47:00,44.4,43.1,30.11,SE,129,0.0,0.0,95,0.00,,---,0.00,VWS V14.01,2013-01-13 16:47:00,
2013-01-13 11:52:00,44.4,43.1,30.11,SE,129,0.0,1.0,95,0.00,,---,0.00,VWS V14.01,2013-01-13 16:52:00,
2013-01-13 11:57:00,44.5,43.2,30.10,SSE,154,3.0,5.0,95,0.00,,---,0.00,VWS V14.01,2013-01-13 16:57:00,
2013-01-13 12:00:00,44.6,43.3,30.09,SSE,148,3.0,6.0,95,0.00,,---,0.00,VWS V14.01,2013-01-13 17:00:00,
2013-01-13 12:02:00,44.6,43.3,30.10,SSE,148,0.0,4.0,95,0.00,,---,0.00,VWS V14.01,2013-01-13 17:02:00,
2013-01-13 12:07:00,44.6,43.3,30.10,SSE,155,1.0,4.0,95,0.00,,---,0.00,VWS V14.01,2013-01-13 17:07:00,
2013-01-13 12:12:00,44.8,43.5,30.09,SSE,155,0.0,4.0,95,0.00,,---,0.00,VWS V14.01,2013-01-13 17:12:00,
2013-01-13 12:15:00,44.7,43.4,30.09,SSE,155,0.0,4.0,95,0.00,,---,0.00,VWS V14.01,2013-01-13 17:15:00,
2013-01-13 12:17:00,44.7,43.4,30.09,SSE,155,0.0,0.0,95,0.00,,---,0.00,VWS V14.01,2013-01-13 17:17:00,
2013-01-13 12:22:00,44.7,43.4,30.09,SSE,159,3.0,4.0,95,0.00,,---,0.00,VWS V14.01,2013-01-13 17:22:00,
2013-01-13 12:27:00,44.9,43.6,30.08,SSE,158,1.0,4.0,95,0.00,,---,0.00,VWS V14.01,2013-01-13 17:27:00,
2013-01-13 12:30:00,44.9,43.6,30.08,SSE,159,3.0,4.0,95,0.00,,---,0.00,VWS V14.01,2013-01-13 17:30:00,
2013-01-13 12:32:00,44.9,43.6,30.08,SSE,159,3.0,3.0,95,0.00,,---,0.00,VWS V14.01,2013-01-13 17:32:00,
2013-01-13 12:37:00,44.9,43.6,30.08,SE,146,2.0,7.0,95,0.00,,---,0.00,VWS V14.01,2013-01-13 17:37:00,
2013-01-13 12:42:00,45.0,43.7,30.08,SE,146,0.0,7.0,95,0.00,,---,0.00,VWS V14.01,2013-01-13 17:42:00,
2013-01-13 12:45:00,45.0,43.7,30.08,SSE,147,0.0,7.0,95,0.00,,---,0.00,VWS V14.01,2013-01-13 17:45:00,
2013-01-13 12:47:00,45.1,43.8,30.08,SSE,147,0.0,1.0,95,0.00,,---,0.00,VWS V14.01,2013-01-13 17:47:00,
2013-01-13 12:52:00,45.3,44.0,30.07,SSE,147,2.0,3.0,95,0.00,,---,0.00,VWS V14.01,2013-01-13 17:52:00,
2013-01-13 12:58:00,45.1,43.8,30.07,SSE,147,3.0,4.0,95,0.00,,---,0.00,VWS V14.01,2013-01-13 17:58:00,
2013-01-13 13:00:00,45.2,43.9,30.07,SSE,148,1.0,4.0,95,0.00,,---,0.00,VWS V14.01,2013-01-13 18:00:00,
2013-01-13 13:03:00,45.2,43.9,30.07,SSE,148,1.0,2.0,95,0.00,,---,0.00,VWS V14.01,2013-01-13 18:03:00,
2013-01-13 13:08:00,45.2,43.9,30.06,SSE,148,0.0,2.0,95,0.00,,---,0.00,VWS V14.01,2013-01-13 18:08:00,
2013-01-13 13:13:00,45.4,44.0,30.07,South,186,0.0,2.0,95,0.00,,---,0.00,VWS V14.01,2013-01-13 18:13:00,
2013-01-13 13:15:00,45.5,44.2,30.07,South,190,0.0,2.0,95,0.00,,---,0.00,VWS V14.01,2013-01-13 18:15:00,
2013-01-13 13:18:00,45.5,44.2,30.07,SSW,200,0.0,3.0,95,0.00,,---,0.00,VWS V14.01,2013-01-13 18:18:00,
2013-01-13 13:23:00,45.5,44.2,30.07,SSW,200,0.0,3.0,95,0.00,,---,0.00,VWS V14.01,2013-01-13 18:23:00,
2013-01-13 13:28:00,45.6,44.2,30.06,SSW,200,0.0,3.0,95,0.00,,---,0.00,VWS V14.01,2013-01-13 18:28:00,
2013-01-13 13:30:00,45.6,44.2,30.06,SSW,200,0.0,3.0,95,0.00,,---,0.00,VWS V14.01,2013-01-13 18:30:00,
2013-01-13 13:33:00,45.6,44.2,30.06,SSW,200,0.0,0.0,95,0.00,,---,0.00,VWS V14.01,2013-01-13 18:33:00,
2013-01-13 13:38:00,45.8,44.5,30.05,SSW,200,0.0,0.0,95,0.00,,---,0.00,VWS V14.01,2013-01-13 18:38:00,
2013-01-13 13:43:00,45.9,44.8,30.05,SSW,200,0.0,0.0,96,0.00,,---,0.00,VWS V14.01,2013-01-13 18:43:00,
2013-01-13 13:45:00,45.9,44.8,30.05,SSW,200,0.0,0.0,96,0.00,,---,0.00,VWS V14.01,2013-01-13 18:45:00,
2013-01-13 13:48:00,46.0,44.7,30.05,SSW,200,0.0,1.0,95,0.00,,---,0.00,VWS V14.01,2013-01-13 18:48:00,
2013-01-13 13:53:00,46.1,44.8,30.05,SSW,200,2.0,3.0,95,0.00,,---,0.00,VWS V14.01,2013-01-13 18:53:00,
2013-01-13 13:58:00,46.4,45.0,30.05,SSW,200,0.0,3.0,95,0.00,,---,0.00,VWS V14.01,2013-01-13 18:58:00,
2013-01-13 14:00:00,46.4,45.0,30.05,SSW,200,1.0,3.0,95,0.00,,---,0.00,VWS V14.01,2013-01-13 19:00:00,
2013-01-13 14:03:00,46.5,45.2,30.05,SSW,200,0.0,1.0,95,0.00,,---,0.00,VWS V14.01,2013-01-13 19:03:00,
2013-01-13 14:08:00,46.5,45.4,30.05,SSW,200,0.0,1.0,96,0.00,,---,0.00,VWS V14.01,2013-01-13 19:08:00,
2013-01-13 14:13:00,46.7,45.6,30.05,SSW,194,0.0,3.0,96,0.00,,---,0.00,VWS V14.01,2013-01-13 19:13:00,
2013-01-13 14:15:00,46.7,45.6,30.06,SSW,194,0.0,3.0,96,0.00,,---,0.00,VWS V14.01,2013-01-13 19:15:00,
2013-01-13 14:18:00,46.8,45.7,30.05,SSW,194,0.0,0.0,96,0.00,,---,0.00,VWS V14.01,2013-01-13 19:18:00,
2013-01-13 14:23:00,46.8,45.7,30.05,SSW,194,0.0,1.0,96,0.00,,---,0.00,VWS V14.01,2013-01-13 19:23:00,
2013-01-13 14:29:00,46.9,45.5,30.05,SSW,194,0.0,1.0,95,0.00,,---,0.00,VWS V14.01,2013-01-13 19:29:00,
2013-01-13 14:30:00,46.9,45.5,30.05,SSW,194,0.0,1.0,95,0.00,,---,0.00,VWS V14.01,2013-01-13 19:30:00,
2013-01-13 14:34:00,47.0,45.7,30.06,SSW,194,0.0,0.0,95,0.00,,---,0.00,VWS V14.01,2013-01-13 19:34:00,
2013-01-13 14:39:00,47.0,45.7,30.06,SW,225,2.0,3.0,95,0.00,,---,0.00,VWS V14.01,2013-01-13 19:39:00,
2013-01-13 14:44:00,47.0,45.7,30.06,SW,225,0.0,3.0,95,0.00,,---,0.00,VWS V14.01,2013-01-13 19:44:00,
2013-01-13 14:45:00,47.0,45.7,30.06,SW,225,0.0,3.0,95,0.00,,---,0.00,VWS V14.01,2013-01-13 19:45:00,
2013-01-13 14:49:00,47.1,45.7,30.06,SW,225,0.0,3.0,95,0.00,,---,0.00,VWS V14.01,2013-01-13 19:49:00,
2013-01-13 14:54:00,47.2,46.1,30.06,SW,227,0.0,3.0,96,0.00,,---,0.00,VWS V14.01,2013-01-13 19:54:00,
2013-01-13 14:59:00,47.3,46.2,30.05,SW,227,0.0,3.0,96,0.00,,---,0.00,VWS V14.01,2013-01-13 19:59:00,
2013-01-13 15:00:00,47.3,46.2,30.05,SW,227,0.0,3.0,96,0.00,,---,0.00,VWS V14.01,2013-01-13 20:00:00,
2013-01-13 15:04:00,47.4,46.3,30.05,SW,227,0.0,0.0,96,0.00,,---,0.00,VWS V14.01,2013-01-13 20:04:00,
2013-01-13 15:09:00,47.4,46.0,30.06,SW,227,0.0,0.0,95,0.00,,---,0.00,VWS V14.01,2013-01-13 20:09:00,
2013-01-13 15:14:00,47.6,46.2,30.05,SW,227,0.0,0.0,95,0.00,,---,0.00,VWS V14.01,2013-01-13 20:14:00,
2013-01-13 15:15:00,47.5,46.1,30.05,SW,227,0.0,0.0,95,0.00,,---,0.00,VWS V14.01,2013-01-13 20:15:00,
2013-01-13 15:19:00,47.6,46.2,30.05,SW,227,0.0,0.0,95,0.00,,---,0.00,VWS V14.01,2013-01-13 20:19:00,
2013-01-13 15:24:00,47.8,46.7,30.05,SW,227,0.0,0.0,96,0.00,,---,0.00,VWS V14.01,2013-01-13 20:24:00,
2013-01-13 15:29:00,47.6,46.2,30.04,SW,227,0.0,0.0,95,0.00,,---,0.00,VWS V14.01,2013-01-13 20:29:00,
2013-01-13 15:30:00,47.6,46.2,30.04,SW,227,3.0,3.0,95,0.00,,---,0.00,VWS V14.01,2013-01-13 20:30:00,
2013-01-13 15:34:00,47.5,46.1,30.04,SW,227,0.0,3.0,95,0.00,,---,0.00,VWS V14.01,2013-01-13 20:34:00,
2013-01-13 15:39:00,47.7,46.6,30.04,SW,227,0.0,3.0,96,0.00,,---,0.00,VWS V14.01,2013-01-13 20:39:00,
2013-01-13 15:44:00,47.8,46.7,30.04,SW,227,0.0,3.0,96,0.00,,---,0.00,VWS V14.01,2013-01-13 20:44:00,
2013-01-13 15:45:00,47.8,46.7,30.04,SW,227,0.0,3.0,96,0.00,,---,0.00,VWS V14.01,2013-01-13 20:45:00,
2013-01-13 15:49:00,47.8,46.7,30.04,SW,227,0.0,0.0,96,0.00,,---,0.00,VWS V14.01,2013-01-13 20:49:00,
2013-01-13 15:54:00,47.9,46.5,30.04,SW,227,0.0,1.0,95,0.00,,---,0.00,VWS V14.01,2013-01-13 20:54:00,
2013-01-13 15:59:00,47.9,46.5,30.03,SW,227,0.0,1.0,95,0.00,,---,0.00,VWS V14.01,2013-01-13 20:59:00,
2013-01-13 16:00:00,47.9,46.5,30.03,SW,227,0.0,1.0,95,0.00,,---,0.00,VWS V14.01,2013-01-13 21:00:00,
2013-01-13 16:04:00,47.9,46.5,30.03,SW,227,0.0,1.0,95,0.00,,---,0.00,VWS V14.01,2013-01-13 21:04:00,
2013-01-13 16:09:00,47.9,46.5,30.03,SW,227,0.0,1.0,95,0.00,,---,0.00,VWS V14.01,2013-01-13 21:09:00,
2013-01-13 16:15:00,48.0,46.6,30.03,SW,227,0.0,1.0,95,0.00,,---,0.00,VWS V14.01,2013-01-13 21:15:00,
2013-01-13 16:20:00,48.1,46.7,30.03,SW,227,0.0,0.0,95,0.00,,---,0.00,VWS V14.01,2013-01-13 21:20:00,
2013-01-13 16:25:00,47.9,46.5,30.03,SW,227,0.0,3.0,95,0.00,,---,0.00,VWS V14.01,2013-01-13 21:25:00,
2013-01-13 16:30:00,47.9,46.5,30.02,SW,227,2.0,4.0,95,0.00,,---,0.00,VWS V14.01,2013-01-13 21:30:00,
2013-01-13 16:35:00,48.0,46.6,30.03,SW,227,0.0,2.0,95,0.00,,---,0.00,VWS V14.01,2013-01-13 21:35:00,
2013-01-13 16:40:00,47.9,46.5,30.02,SW,227,0.0,2.0,95,0.00,,---,0.00,VWS V14.01,2013-01-13 21:40:00,
2013-01-13 16:45:00,47.9,46.5,30.03,SW,227,0.0,2.0,95,0.00,,---,0.00,VWS V14.01,2013-01-13 21:45:00,
2013-01-13 16:50:00,47.9,46.5,30.03,SW,227,0.0,2.0,95,0.00,,---,0.00,VWS V14.01,2013-01-13 21:50:00,
2013-01-13 16:55:00,47.8,46.4,30.04,SW,227,0.0,2.0,95,0.00,,---,0.00,VWS V14.01,2013-01-13 21:55:00,
2013-01-13 17:00:00,47.8,46.4,30.03,SW,227,0.0,2.0,95,0.00,,---,0.00,VWS V14.01,2013-01-13 22:00:00,
2013-01-13 17:05:00,47.8,46.4,30.04,SW,227,0.0,0.0,95,0.00,,---,0.00,VWS V14.01,2013-01-13 22:05:00,
2013-01-13 17:10:00,47.9,46.5,30.03,SW,227,0.0,0.0,95,0.00,,---,0.00,VWS V14.01,2013-01-13 22:10:00,
2013-01-13 17:15:00,48.0,46.6,30.03,SW,227,0.0,0.0,95,0.00,,---,0.00,VWS V14.01,2013-01-13 22:15:00,
2013-01-13 17:20:00,47.9,46.5,30.03,SW,227,0.0,0.0,95,0.00,,---,0.00,VWS V14.01,2013-01-13 22:20:00,
2013-01-13 17:25:00,47.9,46.5,30.03,SW,227,0.0,0.0,95,0.00,,---,0.00,VWS V14.01,2013-01-13 22:25:00,
2013-01-13 17:30:00,47.8,46.2,30.03,SW,227,0.0,0.0,94,0.00,,---,0.00,VWS V14.01,2013-01-13 22:30:00,
2013-01-13 17:35:00,47.7,46.1,30.04,SW,227,0.0,0.0,94,0.00,,---,0.00,VWS V14.01,2013-01-13 22:35:00,
2013-01-13 17:41:00,47.6,46.0,30.03,SW,227,2.0,3.0,94,0.00,,---,0.00,VWS V14.01,2013-01-13 22:41:00,
2013-01-13 17:45:00,47.7,46.1,30.02,SSE,158,2.0,3.0,94,0.00,,---,0.00,VWS V14.01,2013-01-13 22:45:00,
2013-01-13 17:46:00,47.7,46.1,30.02,SSE,158,1.0,3.0,94,0.00,,---,0.00,VWS V14.01,2013-01-13 22:46:00,
2013-01-13 17:51:00,47.6,46.0,30.01,SSE,158,0.0,3.0,94,0.00,,---,0.00,VWS V14.01,2013-01-13 22:51:00,
2013-01-13 17:56:00,47.5,45.9,30.02,SSE,158,0.0,3.0,94,0.00,,---,0.00,VWS V14.01,2013-01-13 22:56:00,
2013-01-13 18:00:00,47.4,45.8,30.03,SSE,158,0.0,3.0,94,0.00,,---,0.00,VWS V14.01,2013-01-13 23:00:00,
2013-01-13 18:01:00,47.4,45.8,30.03,SSE,158,0.0,3.0,94,0.00,,---,0.00,VWS V14.01,2013-01-13 23:01:00,
2013-01-13 18:06:00,47.2,45.6,30.01,SSE,158,2.0,3.0,94,0.00,,---,0.00,VWS V14.01,2013-01-13 23:06:00,
2013-01-13 18:11:00,47.1,45.5,30.02,SSE,158,0.0,3.0,94,0.00,,---,0.00,VWS V14.01,2013-01-13 23:11:00,
2013-01-13 18:15:00,47.0,45.4,30.02,SSE,158,0.0,3.0,94,0.00,,---,0.00,VWS V14.01,2013-01-13 23:15:00,
2013-01-13 18:16:00,47.0,45.4,30.02,SSE,158,0.0,0.0,94,0.00,,---,0.00,VWS V14.01,2013-01-13 23:16:00,
2013-01-13 18:21:00,47.0,45.4,30.01,SSE,158,0.0,0.0,94,0.00,,---,0.00,VWS V14.01,2013-01-13 23:21:00,
2013-01-13 18:26:00,46.9,45.3,30.01,SSE,158,0.0,0.0,94,0.00,,---,0.00,VWS V14.01,2013-01-13 23:26:00,
2013-01-13 18:30:00,46.9,45.3,30.02,SSE,158,0.0,0.0,94,0.00,,---,0.00,VWS V14.01,2013-01-13 23:30:00,
2013-01-13 18:31:00,46.9,45.3,30.02,SSE,158,0.0,0.0,94,0.00,,---,0.00,VWS V14.01,2013-01-13 23:31:00,
2013-01-13 18:36:00,46.9,45.3,30.02,SSE,158,0.0,0.0,94,0.00,,---,0.00,VWS V14.01,2013-01-13 23:36:00,
2013-01-13 18:41:00,46.9,45.3,30.02,SSE,158,0.0,0.0,94,0.00,,---,0.00,VWS V14.01,2013-01-13 23:41:00,
2013-01-13 18:45:00,47.0,45.4,30.01,SSE,158,0.0,0.0,94,0.00,,---,0.00,VWS V14.01,2013-01-13 23:45:00,
2013-01-13 18:46:00,47.0,45.4,30.01,SSE,158,0.0,0.0,94,0.00,,---,0.00,VWS V14.01,2013-01-13 23:46:00,
2013-01-13 18:51:00,47.0,45.4,30.02,SSE,158,0.0,0.0,94,0.00,,---,0.00,VWS V14.01,2013-01-13 23:51:00,
2013-01-13 18:56:00,46.9,45.3,30.02,SW,234,0.0,2.0,94,0.00,,---,0.00,VWS V14.01,2013-01-13 23:56:00,
2013-01-13 19:00:00,46.8,45.2,30.02,SW,234,0.0,2.0,94,0.00,,---,0.00,VWS V14.01,2013-01-14 00:00:00,
2013-01-13 19:01:00,46.9,45.3,30.02,SW,234,0.0,0.0,94,0.00,,---,0.00,VWS V14.01,2013-01-14 00:01:00,
2013-01-13 19:06:00,46.9,45.3,30.02,SW,234,0.0,0.0,94,0.00,,---,0.00,VWS V14.01,2013-01-14 00:06:00,
2013-01-13 19:11:00,46.9,45.3,30.02,SW,234,0.0,0.0,94,0.00,,---,0.00,VWS V14.01,2013-01-14 00:11:00,
2013-01-13 19:15:00,47.0,45.4,30.02,SW,234,0.0,0.0,94,0.00,,---,0.00,VWS V14.01,2013-01-14 00:15:00,
2013-01-13 19:17:00,46.9,45.3,30.02,SW,234,0.0,0.0,94,0.00,,---,0.00,VWS V14.01,2013-01-14 00:17:00,
2013-01-13 19:22:00,46.9,45.3,30.02,SW,234,0.0,0.0,94,0.00,,---,0.00,VWS V14.01,2013-01-14 00:22:00,
2013-01-13 19:27:00,47.0,45.4,30.01,SW,234,0.0,0.0,94,0.00,,---,0.00,VWS V14.01,2013-01-14 00:27:00,
2013-01-13 19:30:00,47.0,45.7,30.02,SW,234,0.0,0.0,95,0.00,,---,0.00,VWS V14.01,2013-01-14 00:30:00,
2013-01-13 19:32:00,47.0,45.7,30.02,SW,234,0.0,0.0,95,0.00,,---,0.00,VWS V14.01,2013-01-14 00:32:00,
2013-01-13 19:37:00,47.0,45.7,30.02,SW,234,0.0,0.0,95,0.00,,---,0.00,VWS V14.01,2013-01-14 00:37:00,
2013-01-13 19:42:00,47.0,45.7,30.02,SW,234,0.0,0.0,95,0.00,,---,0.00,VWS V14.01,2013-01-14 00:42:00,
2013-01-13 19:45:00,47.0,45.7,30.01,SW,234,0.0,0.0,95,0.00,,---,0.00,VWS V14.01,2013-01-14 00:45:00,
2013-01-13 19:47:00,47.0,45.7,30.01,SW,234,0.0,0.0,95,0.00,,---,0.00,VWS V14.01,2013-01-14 00:47:00,
2013-01-13 19:52:00,47.2,45.6,30.01,SW,234,0.0,0.0,94,0.00,,---,0.00,VWS V14.01,2013-01-14 00:52:00,
2013-01-13 19:57:00,47.2,45.6,30.01,SW,234,0.0,0.0,94,0.00,,---,0.00,VWS V14.01,2013-01-14 00:57:00,
2013-01-13 20:00:00,47.1,45.5,30.01,SW,234,0.0,0.0,94,0.00,,---,0.00,VWS V14.01,2013-01-14 01:00:00,
2013-01-13 20:02:00,47.1,45.5,30.01,SW,234,0.0,0.0,94,0.00,,---,0.00,VWS V14.01,2013-01-14 01:02:00,
2013-01-13 20:07:00,47.0,45.7,30.01,SW,234,0.0,0.0,95,0.00,,---,0.00,VWS V14.01,2013-01-14 01:07:00,
2013-01-13 20:12:00,47.0,45.7,30.01,SW,234,0.0,0.0,95,0.00,,---,0.00,VWS V14.01,2013-01-14 01:12:00,
2013-01-13 20:15:00,47.2,45.8,30.01,SW,234,0.0,0.0,95,0.00,,---,0.00,VWS V14.01,2013-01-14 01:15:00,
2013-01-13 20:17:00,47.3,45.9,30.01,SW,234,0.0,0.0,95,0.00,,---,0.00,VWS V14.01,2013-01-14 01:17:00,
2013-01-13 20:22:00,47.5,46.1,30.01,SW,234,0.0,0.0,95,0.00,,---,0.00,VWS V14.01,2013-01-14 01:22:00,
2013-01-13 20:27:00,47.6,46.2,30.01,SW,234,0.0,0.0,95,0.00,,---,0.00,VWS V14.01,2013-01-14 01:27:00,
2013-01-13 20:30:00,47.7,46.3,30.01,SW,234,0.0,0.0,95,0.00,,---,0.00,VWS V14.01,2013-01-14 01:30:00,
2013-01-13 20:32:00,47.7,46.3,30.01,SW,234,0.0,0.0,95,0.00,,---,0.00,VWS V14.01,2013-01-14 01:32:00,
2013-01-13 20:37:00,47.9,46.5,30.01,SW,234,0.0,0.0,95,0.00,,---,0.00,VWS V14.01,2013-01-14 01:37:00,
2013-01-13 20:42:00,47.9,46.5,30.01,SW,234,0.0,0.0,95,0.00,,---,0.00,VWS V14.01,2013-01-14 01:42:00,
2013-01-13 20:45:00,47.9,46.5,30.01,SW,234,0.0,0.0,95,0.00,,---,0.00,VWS V14.01,2013-01-14 01:45:00,
2013-01-13 20:47:00,47.9,46.5,30.01,SW,234,0.0,0.0,95,0.00,,---,0.00,VWS V14.01,2013-01-14 01:47:00,
2013-01-13 20:52:00,47.8,46.4,30.01,SW,234,0.0,0.0,95,0.00,,---,0.00,VWS V14.01,2013-01-14 01:52:00,
2013-01-13 20:57:00,47.9,46.5,30.00,SW,234,0.0,0.0,95,0.00,,---,0.00,VWS V14.01,2013-01-14 01:57:00,
2013-01-13 21:00:00,48.0,46.6,30.00,SW,234,0.0,0.0,95,0.00,,---,0.00,VWS V14.01,2013-01-14 02:00:00,
2013-01-13 21:02:00,48.0,46.6,30.00,SW,234,0.0,0.0,95,0.00,,---,0.00,VWS V14.01,2013-01-14 02:02:00,
2013-01-13 21:08:00,48.0,46.6,30.01,SW,234,0.0,0.0,95,0.00,,---,0.00,VWS V14.01,2013-01-14 02:08:00,
2013-01-13 21:13:00,47.8,46.4,30.00,SW,234,0.0,0.0,95,0.00,,---,0.00,VWS V14.01,2013-01-14 02:13:00,
2013-01-13 21:15:00,47.9,46.5,30.00,SW,234,0.0,0.0,95,0.01,,---,0.01,VWS V14.01,2013-01-14 02:15:00,
2013-01-13 21:18:00,48.0,46.6,29.99,SW,234,0.0,0.0,95,0.01,,---,0.01,VWS V14.01,2013-01-14 02:18:00,
2013-01-13 21:23:00,48.1,46.7,29.99,SW,234,0.0,1.0,95,0.01,,---,0.01,VWS V14.01,2013-01-14 02:23:00,
2013-01-13 21:28:00,48.0,46.6,30.00,SW,234,0.0,1.0,95,0.01,,---,0.01,VWS V14.01,2013-01-14 02:28:00,
2013-01-13 21:30:00,47.9,46.5,30.00,SW,234,0.0,1.0,95,0.01,,---,0.01,VWS V14.01,2013-01-14 02:30:00,
2013-01-13 21:33:00,47.9,46.5,30.00,SW,234,0.0,0.0,95,0.01,,---,0.01,VWS V14.01,2013-01-14 02:33:00,
2013-01-13 21:38:00,47.9,46.5,30.00,SW,234,0.0,0.0,95,0.01,,---,0.01,VWS V14.01,2013-01-14 02:38:00,
2013-01-13 21:43:00,48.0,46.6,30.00,SW,234,0.0,0.0,95,0.01,,---,0.01,VWS V14.01,2013-01-14 02:43:00,
2013-01-13 21:45:00,47.9,46.5,30.00,SW,234,0.0,0.0,95,0.01,,---,0.01,VWS V14.01,2013-01-14 02:45:00,
2013-01-13 21:48:00,47.9,46.5,30.00,SW,234,0.0,0.0,95,0.01,,---,0.01,VWS V14.01,2013-01-14 02:48:00,
2013-01-13 21:53:00,47.9,46.5,30.00,SW,234,0.0,0.0,95,0.01,,---,0.01,VWS V14.01,2013-01-14 02:53:00,
2013-01-13 21:58:00,47.9,46.5,30.00,SW,234,0.0,0.0,95,0.01,,---,0.01,VWS V14.01,2013-01-14 02:58:00,
2013-01-13 22:00:00,48.0,46.6,30.00,SW,234,0.0,0.0,95,0.01,,---,0.01,VWS V14.01,2013-01-14 03:00:00,
2013-01-13 22:03:00,48.1,46.7,30.00,SW,234,0.0,0.0,95,0.01,,---,0.01,VWS V14.01,2013-01-14 03:03:00,
2013-01-13 22:08:00,48.2,46.8,30.00,SW,234,0.0,0.0,95,0.01,,---,0.01,VWS V14.01,2013-01-14 03:08:00,
2013-01-13 22:13:00,48.2,46.8,30.01,SW,234,0.0,0.0,95,0.01,,---,0.01,VWS V14.01,2013-01-14 03:13:00,
2013-01-13 22:15:00,48.1,46.7,30.01,SW,234,0.0,0.0,95,0.01,,---,0.01,VWS V14.01,2013-01-14 03:15:00,
2013-01-13 22:18:00,48.1,46.7,30.01,SW,234,0.0,0.0,95,0.00,,---,0.01,VWS V14.01,2013-01-14 03:18:00,
2013-01-13 22:23:00,47.9,46.5,30.01,SW,234,0.0,0.0,95,0.00,,---,0.01,VWS V14.01,2013-01-14 03:23:00,
2013-01-13 22:28:00,47.8,46.4,30.01,SW,234,0.0,0.0,95,0.00,,---,0.01,VWS V14.01,2013-01-14 03:28:00,
2013-01-13 22:30:00,47.8,46.4,30.01,SW,234,0.0,0.0,95,0.00,,---,0.01,VWS V14.01,2013-01-14 03:30:00,
2013-01-13 22:33:00,47.8,46.4,30.00,SW,234,0.0,0.0,95,0.00,,---,0.01,VWS V14.01,2013-01-14 03:33:00,
2013-01-13 22:38:00,47.9,46.5,30.00,SW,234,0.0,0.0,95,0.00,,---,0.01,VWS V14.01,2013-01-14 03:38:00,
2013-01-13 22:43:00,47.9,46.5,30.00,SW,234,0.0,0.0,95,0.00,,---,0.01,VWS V14.01,2013-01-14 03:43:00,
2013-01-13 22:45:00,47.9,46.5,30.00,SW,234,0.0,0.0,95,0.00,,---,0.01,VWS V14.01,2013-01-14 03:45:00,
2013-01-13 22:48:00,47.9,46.5,30.00,SW,234,0.0,0.0,95,0.00,,---,0.01,VWS V14.01,2013-01-14 03:48:00,
2013-01-13 22:53:00,47.9,46.5,30.00,SW,234,0.0,0.0,95,0.00,,---,0.01,VWS V14.01,2013-01-14 03:53:00,
2013-01-13 22:58:00,48.0,46.6,30.00,SW,234,0.0,0.0,95,0.00,,---,0.01,VWS V14.01,2013-01-14 03:58:00,
2013-01-13 23:00:00,48.0,46.6,30.00,SW,234,0.0,0.0,95,0.00,,---,0.01,VWS V14.01,2013-01-14 04:00:00,
2013-01-13 23:03:00,47.9,46.5,30.00,SW,234,0.0,0.0,95,0.00,,---,0.01,VWS V14.01,2013-01-14 04:03:00,
2013-01-13 23:08:00,47.7,46.3,30.00,SW,234,0.0,0.0,95,0.00,,---,0.01,VWS V14.01,2013-01-14 04:08:00,
2013-01-13 23:14:00,47.8,46.4,30.00,SW,234,0.0,0.0,95,0.00,,---,0.01,VWS V14.01,2013-01-14 04:14:00,
2013-01-13 23:15:00,47.8,46.4,30.00,SW,234,0.0,0.0,95,0.00,,---,0.01,VWS V14.01,2013-01-14 04:15:00,
2013-01-13 23:19:00,47.8,46.4,30.00,SW,234,0.0,0.0,95,0.00,,---,0.01,VWS V14.01,2013-01-14 04:19:00,
2013-01-13 23:24:00,48.0,46.6,30.00,SW,234,0.0,0.0,95,0.00,,---,0.01,VWS V14.01,2013-01-14 04:24:00,
2013-01-13 23:29:00,47.9,46.5,30.00,SW,234,0.0,0.0,95,0.00,,---,0.01,VWS V14.01,2013-01-14 04:29:00,
2013-01-13 23:30:00,48.0,46.6,30.00,SW,234,0.0,0.0,95,0.00,,---,0.01,VWS V14.01,2013-01-14 04:30:00,
2013-01-13 23:34:00,48.0,46.6,29.99,SW,234,0.0,1.0,95,0.00,,---,0.01,VWS V14.01,2013-01-14 04:34:00,
2013-01-13 23:39:00,47.9,46.5,30.00,SW,234,0.0,1.0,95,0.00,,---,0.01,VWS V14.01,2013-01-14 04:39:00,
2013-01-13 23:44:00,47.9,46.5,30.00,SW,234,0.0,1.0,95,0.00,,---,0.01,VWS V14.01,2013-01-14 04:44:00,
2013-01-13 23:45:00,47.9,46.5,30.00,SW,234,0.0,1.0,95,0.00,,---,0.01,VWS V14.01,2013-01-14 04:45:00,
2013-01-13 23:49:00,47.8,46.4,29.99,SW,234,0.0,0.0,95,0.00,,---,0.01,VWS V14.01,2013-01-14 04:49:00,
2013-01-13 23:54:00,47.8,46.4,29.99,SW,234,0.0,2.0,95,0.00,,---,0.01,VWS V14.01,2013-01-14 04:54:00,
2013-01-13 23:59:00,47.7,46.3,30.00,SW,234,0.0,2.0,95,0.00,,---,0.01,VWS V14.01,2013-01-14 04:59:00,